Torna al catalogo

COSMOS 839 DEB

AttivoUNKNOWN
NORAD 10453·DEBRIS·🇷🇺 Russia

Lanciato Jul 8, 1976 da Plesetsk Cosmodrome

Loading…

Prossimi Passaggi (prossime 24 ore)

TLE

AggiornatoSource: Space-Track

Epoca: Sep 14, 2026, 03:02 UTC

1 10453U 76067AE  26257.12700613 -.00000110  00000-0 -14958-3 0  9995
2 10453  65.8117 147.7061 0727041 273.6756 244.8659 12.42566312274571

Traccia COSMOS 839 DEB in tempo reale con AllMySat

Download on the App Store